TimeCST,TemperatureF,Dew PointF,Humidity,Sea Level PressureIn,VisibilityMPH,Wind Direction,Wind SpeedMPH,Gust SpeedMPH,PrecipitationIn,Events,Conditions,WindDirDegrees,DateUTC
12:15 AM,37.4,28.4,70,29.93,10.0,SW,9.2,-,N/A,,Clear,220,2014-01-20 06:15:00
12:35 AM,37.4,28.4,70,29.92,10.0,SW,10.4,-,N/A,,Clear,220,2014-01-20 06:35:00
12:55 AM,37.4,28.4,70,29.91,10.0,SW,9.2,-,N/A,,Clear,220,2014-01-20 06:55:00
1:15 AM,37.4,28.4,70,29.91,10.0,SW,10.4,-,N/A,,Clear,220,2014-01-20 07:15:00
1:35 AM,37.4,28.4,70,29.90,10.0,SW,10.4,-,N/A,,Clear,220,2014-01-20 07:35:00
1:55 AM,37.4,28.4,70,29.90,10.0,SW,10.4,-,N/A,,Clear,220,2014-01-20 07:55:00
2:15 AM,37.4,28.4,70,29.90,10.0,SW,10.4,-,N/A,,Clear,220,2014-01-20 08:15:00
2:35 AM,37.4,28.4,70,29.90,10.0,SW,11.5,-,N/A,,Clear,220,2014-01-20 08:35:00
2:55 AM,37.4,28.4,70,29.90,10.0,SW,12.7,17.3,N/A,,Clear,230,2014-01-20 08:55:00
3:15 AM,37.4,28.4,70,29.90,10.0,SW,13.8,-,N/A,,Clear,230,2014-01-20 09:15:00
3:35 AM,37.4,28.4,70,29.90,10.0,SW,11.5,-,N/A,,Clear,230,2014-01-20 09:35:00
3:55 AM,37.4,28.4,70,29.90,10.0,SW,12.7,17.3,N/A,,Clear,230,2014-01-20 09:55:00
4:15 AM,37.4,28.4,70,29.90,10.0,SW,11.5,-,N/A,,Clear,220,2014-01-20 10:15:00
4:35 AM,37.4,28.4,70,29.90,10.0,SW,11.5,-,N/A,,Clear,230,2014-01-20 10:35:00
4:55 AM,37.4,28.4,70,29.91,10.0,SW,9.2,-,N/A,,Clear,230,2014-01-20 10:55:00
5:15 AM,37.4,28.4,70,29.91,10.0,SW,10.4,-,N/A,,Clear,230,2014-01-20 11:15:00
5:35 AM,37.4,28.4,70,29.91,10.0,SW,9.2,-,N/A,,Clear,230,2014-01-20 11:35:00
5:55 AM,35.6,28.4,75,29.92,10.0,WSW,9.2,-,N/A,,Clear,240,2014-01-20 11:55:00
6:15 AM,35.6,28.4,75,29.92,10.0,SW,6.9,-,N/A,,Clear,230,2014-01-20 12:15:00
6:35 AM,35.6,28.4,75,29.92,10.0,SW,5.8,-,N/A,,Clear,220,2014-01-20 12:35:00
6:55 AM,35.6,28.4,75,29.93,10.0,SW,5.8,-,N/A,,Clear,220,2014-01-20 12:55:00
7:15 AM,35.6,28.4,75,29.93,10.0,SW,5.8,-,N/A,,Clear,220,2014-01-20 13:15:00
7:35 AM,33.8,28.4,81,29.93,10.0,SW,5.8,-,N/A,,Clear,230,2014-01-20 13:35:00
7:55 AM,35.6,28.4,75,29.94,10.0,SW,6.9,-,N/A,,Clear,230,2014-01-20 13:55:00
8:15 AM,37.4,28.4,70,29.95,10.0,SW,6.9,-,N/A,,Clear,230,2014-01-20 14:15:00
8:35 AM,39.2,28.4,65,29.95,10.0,WSW,6.9,-,N/A,,Clear,240,2014-01-20 14:35:00
8:55 AM,41.0,30.2,65,29.96,10.0,WSW,6.9,-,N/A,,Clear,240,2014-01-20 14:55:00
9:15 AM,42.8,30.2,61,29.96,10.0,West,5.8,-,N/A,,Clear,260,2014-01-20 15:15:00
9:35 AM,44.6,30.2,57,29.96,10.0,West,3.5,-,N/A,,Clear,260,2014-01-20 15:35:00
9:55 AM,46.4,30.2,53,29.97,10.0,WSW,5.8,-,N/A,,Clear,240,2014-01-20 15:55:00
10:15 AM,46.4,30.2,53,29.97,10.0,WSW,5.8,-,N/A,,Clear,250,2014-01-20 16:15:00
10:35 AM,48.2,30.2,50,29.98,10.0,West,4.6,-,N/A,,Clear,260,2014-01-20 16:35:00
10:55 AM,50.0,30.2,47,29.97,10.0,West,3.5,-,N/A,,Clear,260,2014-01-20 16:55:00
11:15 AM,50.0,30.2,47,29.97,10.0,West,3.5,-,N/A,,Clear,260,2014-01-20 17:15:00
11:35 AM,51.8,30.2,44,29.95,10.0,SW,3.5,-,N/A,,Clear,230,2014-01-20 17:35:00
11:55 AM,51.8,30.2,44,29.94,10.0,Calm,Calm,-,N/A,,Clear,0,2014-01-20 17:55:00
12:15 PM,53.6,30.2,41,29.93,10.0,SW,4.6,-,N/A,,Clear,220,2014-01-20 18:15:00
12:35 PM,53.6,30.2,41,29.92,10.0,Calm,Calm,-,N/A,,Clear,0,2014-01-20 18:35:00
12:55 PM,53.6,30.2,41,29.90,10.0,South,3.5,-,N/A,,Clear,190,2014-01-20 18:55:00
1:15 PM,55.4,30.2,38,29.89,10.0,Calm,Calm,-,N/A,,Clear,0,2014-01-20 19:15:00
1:35 PM,55.4,30.2,38,29.89,10.0,Calm,Calm,-,N/A,,Clear,0,2014-01-20 19:35:00
1:55 PM,55.4,32.0,41,29.88,10.0,Calm,Calm,-,N/A,,Clear,0,2014-01-20 19:55:00
2:15 PM,55.4,32.0,41,29.88,10.0,WSW,4.6,-,N/A,,Clear,240,2014-01-20 20:15:00
2:35 PM,55.4,32.0,41,29.87,10.0,Calm,Calm,-,N/A,,Clear,0,2014-01-20 20:35:00
2:55 PM,55.4,32.0,41,29.87,10.0,Calm,Calm,-,N/A,,Clear,0,2014-01-20 20:55:00
3:15 PM,55.4,32.0,41,29.87,10.0,Calm,Calm,-,N/A,,Clear,0,2014-01-20 21:15:00
3:35 PM,55.4,32.0,41,29.87,10.0,Calm,Calm,-,N/A,,Clear,0,2014-01-20 21:35:00
3:55 PM,55.4,32.0,41,29.87,10.0,Calm,Calm,-,N/A,,Clear,0,2014-01-20 21:55:00
4:15 PM,55.4,32.0,41,29.86,10.0,NW,3.5,-,N/A,,Clear,320,2014-01-20 22:15:00
4:35 PM,53.6,32.0,44,29.87,10.0,Calm,Calm,-,N/A,,Clear,0,2014-01-20 22:35:00
4:55 PM,53.6,32.0,44,29.87,10.0,North,5.8,-,N/A,,Clear,350,2014-01-20 22:55:00
5:15 PM,51.8,32.0,47,29.88,10.0,North,4.6,-,N/A,,Clear,350,2014-01-20 23:15:00
5:35 PM,50.0,32.0,50,29.88,10.0,North,4.6,-,N/A,,Clear,350,2014-01-20 23:35:00
5:55 PM,50.0,32.0,50,29.89,10.0,NNW,4.6,-,N/A,,Clear,340,2014-01-20 23:55:00
6:15 PM,48.2,32.0,54,29.89,10.0,North,4.6,-,N/A,,Clear,350,2014-01-21 00:15:00
6:35 PM,48.2,32.0,54,29.89,10.0,North,4.6,-,N/A,,Clear,360,2014-01-21 00:35:00
6:55 PM,46.4,32.0,57,29.89,10.0,North,3.5,-,N/A,,Clear,360,2014-01-21 00:55:00
7:15 PM,44.6,32.0,61,29.88,10.0,North,3.5,-,N/A,,Clear,360,2014-01-21 01:15:00
7:35 PM,42.8,32.0,66,29.89,10.0,North,3.5,-,N/A,,Clear,360,2014-01-21 01:35:00
7:55 PM,44.6,32.0,61,29.89,10.0,North,4.6,-,N/A,,Clear,360,2014-01-21 01:55:00
8:15 PM,44.6,30.2,57,29.90,10.0,North,6.9,-,N/A,,Clear,360,2014-01-21 02:15:00
8:35 PM,44.6,32.0,61,29.91,10.0,North,5.8,-,N/A,,Clear,360,2014-01-21 02:35:00
8:55 PM,44.6,32.0,61,29.90,10.0,NNE,5.8,-,N/A,,Clear,20,2014-01-21 02:55:00
9:15 PM,42.8,32.0,66,29.90,10.0,North,6.9,-,N/A,,Clear,10,2014-01-21 03:15:00
9:35 PM,42.8,32.0,66,29.90,10.0,North,4.6,-,N/A,,Clear,10,2014-01-21 03:35:00
9:55 PM,42.8,32.0,66,29.90,10.0,North,4.6,-,N/A,,Clear,350,2014-01-21 03:55:00
10:15 PM,41.0,32.0,70,29.90,10.0,North,6.9,-,N/A,,Clear,350,2014-01-21 04:15:00
10:35 PM,41.0,32.0,70,29.92,10.0,NNW,9.2,-,N/A,,Clear,340,2014-01-21 04:35:00
10:55 PM,41.0,32.0,70,29.93,10.0,NNW,10.4,-,N/A,,Clear,340,2014-01-21 04:55:00
11:15 PM,41.0,32.0,70,29.93,10.0,North,8.1,-,N/A,,Scattered Clouds,350,2014-01-21 05:15:00
11:35 PM,41.0,32.0,70,29.91,10.0,NNE,3.5,-,N/A,,Clear,20,2014-01-21 05:35:00
11:55 PM,39.2,32.0,75,29.91,10.0,Calm,Calm,-,N/A,,Clear,0,2014-01-21 05:55:00